NPV1200 LRTR-LIME

Flight info

Callsign NPV1200
Flight time N/A
Altitude 36000
Route MOPUG DCT MAVIR DCT KOPRY DCT RIFEN/N0456F370 DCT ADOSA DCT IDREK DCT ELTAR DCT NOBMI DCT NEVNI/N0391F180 L615 OSKOR
Aircraft A320/M-SDE3FGHIRWY/LB1

Departure

Time 2026-04-21 06:21
Airport Timișoara Traian Vuia International Airport (LRTR)

Arrival

Time N/A
Airport Il Caravaggio International Airport (LIME)
Time Latitude Longitude Altitude Speed Heading
2026-04-21 06:06 45.81058 21.32135 341 ft 0 kts 199°
2026-04-21 06:13 45.81079 21.32148 351 ft 4 kts 212°
2026-04-21 06:14 45.81099 21.32172 350 ft 4 kts 244°
2026-04-21 06:14 45.81102 21.32201 347 ft 1 kts 290°
2026-04-21 06:14 45.81101 21.32207 345 ft 0 kts 290°
2026-04-21 06:17 45.81105 21.32189 349 ft 5 kts 290°
2026-04-21 06:18 45.81123 21.32119 342 ft 10 kts 290°
2026-04-21 06:18 45.81150 21.32034 347 ft 10 kts 300°
2026-04-21 06:18 45.81180 21.31923 347 ft 12 kts 289°
2026-04-21 06:18 45.81216 21.31772 351 ft 18 kts 289°
2026-04-21 06:19 45.81262 21.31605 348 ft 16 kts 307°
2026-04-21 06:19 45.81369 21.31606 335 ft 17 kts 20°
2026-04-21 06:19 45.81462 21.31655 338 ft 13 kts 20°
2026-04-21 06:19 45.81492 21.31756 339 ft 13 kts 108°
2026-04-21 06:20 45.81482 21.31797 339 ft 0 kts 111°
2026-04-21 06:20 45.81475 21.31823 341 ft 13 kts 111°
2026-04-21 06:20 45.81365 21.32262 349 ft 82 kts 109°
2026-04-21 06:21 45.81101 21.33311 343 ft 139 kts 109°
2026-04-21 06:21 45.80724 21.34811 500 ft 170 kts 110°
2026-04-21 06:21 45.80319 21.36399 1133 ft 169 kts 108°
2026-04-21 06:21 45.79912 21.37991 1764 ft 173 kts 107°
2026-04-21 06:22 45.79490 21.39663 2267 ft 185 kts 107°
2026-04-21 06:22 45.79022 21.41547 2341 ft 214 kts 107°
2026-04-21 06:22 45.78521 21.43601 2334 ft 220 kts 103°
2026-04-21 06:22 45.78443 21.45748 2344 ft 216 kts 74°
2026-04-21 06:23 45.79084 21.47679 2351 ft 229 kts 46°
2026-04-21 06:23 45.80439 21.49002 2349 ft 243 kts 15°
2026-04-21 06:23 45.82113 21.49021 2345 ft 245 kts 341°
2026-04-21 06:23 45.83517 21.47680 2345 ft 247 kts 310°
2026-04-21 06:24 45.84554 21.45704 2345 ft 249 kts 307°
2026-04-21 06:24 45.85577 21.43690 2344 ft 250 kts 307°
2026-04-21 06:24 45.86594 21.41678 2346 ft 249 kts 307°
2026-04-21 06:24 45.87610 21.39674 2344 ft 248 kts 307°
2026-04-21 06:25 45.88630 21.37672 2341 ft 248 kts 307°
2026-04-21 06:25 45.89670 21.35639 2773 ft 256 kts 307°
2026-04-21 06:25 45.90709 21.33612 3923 ft 249 kts 307°
2026-04-21 06:25 45.91731 21.31612 4970 ft 249 kts 307°
2026-04-21 06:26 45.92760 21.29598 5871 ft 251 kts 307°
2026-04-21 06:26 45.93790 21.27587 6705 ft 255 kts 307°
2026-04-21 06:26 45.94847 21.25522 7538 ft 258 kts 307°
2026-04-21 06:26 45.95913 21.23433 8388 ft 260 kts 306°
2026-04-21 06:27 45.96987 21.21326 9247 ft 263 kts 306°
2026-04-21 06:27 45.98074 21.19192 10080 ft 266 kts 306°
2026-04-21 06:27 45.99186 21.17006 10557 ft 281 kts 306°
2026-04-21 06:27 46.00388 21.14645 10774 ft 304 kts 306°
2026-04-21 06:28 46.01687 21.12090 10931 ft 327 kts 306°
2026-04-21 06:28 46.03067 21.09370 11180 ft 344 kts 306°
2026-04-21 06:28 46.04494 21.06555 11715 ft 352 kts 306°
2026-04-21 06:28 46.05943 21.03691 12408 ft 354 kts 306°
2026-04-21 06:29 46.07400 21.00811 13094 ft 357 kts 306°
2026-04-21 06:29 46.08870 20.97904 13764 ft 360 kts 305°
2026-04-21 06:29 46.10352 20.94972 14358 ft 363 kts 305°
2026-04-21 06:29 46.11840 20.92021 14953 ft 365 kts 304°
2026-04-21 06:30 46.13106 20.88849 15518 ft 366 kts 294°
2026-04-21 06:30 46.13952 20.85379 16098 ft 369 kts 285°
2026-04-21 06:30 46.14539 20.81823 16670 ft 370 kts 284°
2026-04-21 06:30 46.15135 20.78201 17251 ft 372 kts 284°
2026-04-21 06:31 46.15736 20.74563 17806 ft 374 kts 284°
2026-04-21 06:31 46.16366 20.70924 18318 ft 376 kts 288°
2026-04-21 06:31 46.17285 20.67374 18781 ft 378 kts 291°
2026-04-21 06:31 46.18245 20.63848 19295 ft 378 kts 291°
2026-04-21 06:32 46.19204 20.60306 19808 ft 379 kts 291°
2026-04-21 06:32 46.20162 20.56762 20310 ft 379 kts 291°
2026-04-21 06:32 46.21119 20.53214 20797 ft 380 kts 290°
2026-04-21 06:32 46.22075 20.49653 21296 ft 380 kts 290°
2026-04-21 06:33 46.23028 20.46091 21751 ft 381 kts 290°
2026-04-21 06:33 46.23984 20.42520 22206 ft 381 kts 290°
2026-04-21 06:33 46.24941 20.38941 22655 ft 382 kts 290°
2026-04-21 06:33 46.25900 20.35351 23089 ft 383 kts 290°
2026-04-21 06:34 46.26859 20.31753 23501 ft 385 kts 290°
2026-04-21 06:34 46.27820 20.28139 23857 ft 386 kts 290°
2026-04-21 06:34 46.28782 20.24509 24189 ft 387 kts 290°
2026-04-21 06:34 46.29749 20.20862 24511 ft 388 kts 290°
2026-04-21 06:35 46.30716 20.17211 24807 ft 390 kts 290°
2026-04-21 06:35 46.31690 20.13540 25112 ft 391 kts 290°
2026-04-21 06:35 46.32667 20.09859 25401 ft 393 kts 290°
2026-04-21 06:35 46.33644 20.06160 25693 ft 394 kts 290°
2026-04-21 06:36 46.34621 20.02454 25988 ft 395 kts 290°
2026-04-21 06:36 46.35601 19.98726 26265 ft 396 kts 289°
2026-04-21 06:36 46.36578 19.94991 26566 ft 397 kts 289°
2026-04-21 06:36 46.37551 19.91264 26979 ft 395 kts 289°
2026-04-21 06:37 46.38510 19.87595 27395 ft 393 kts 289°
2026-04-21 06:37 46.39285 19.83816 27798 ft 391 kts 282°
2026-04-21 06:37 46.39628 19.79912 28208 ft 391 kts 274°
2026-04-21 06:37 46.39559 19.75977 28619 ft 391 kts 269°
2026-04-21 06:38 46.39383 19.72052 29038 ft 389 kts 269°
2026-04-21 06:38 46.39209 19.68151 29456 ft 388 kts 269°
2026-04-21 06:38 46.39035 19.64257 29880 ft 386 kts 269°
2026-04-21 06:38 46.38863 19.60375 30241 ft 386 kts 269°
2026-04-21 06:39 46.38693 19.56493 30516 ft 386 kts 269°
2026-04-21 06:39 46.38520 19.52608 30783 ft 387 kts 269°
2026-04-21 06:39 46.38344 19.48708 31044 ft 388 kts 269°
2026-04-21 06:39 46.38167 19.44810 31311 ft 388 kts 269°
2026-04-21 06:40 46.37987 19.40908 31573 ft 389 kts 269°
2026-04-21 06:40 46.37804 19.36987 31841 ft 390 kts 269°
2026-04-21 06:40 46.37618 19.33070 32108 ft 391 kts 269°
2026-04-21 06:40 46.37430 19.29145 32376 ft 391 kts 269°
2026-04-21 06:41 46.37244 19.25207 32639 ft 392 kts 269°
2026-04-21 06:41 46.37062 19.21320 32902 ft 391 kts 269°
2026-04-21 06:41 46.36876 19.17404 33277 ft 389 kts 270°
2026-04-21 06:41 46.36688 19.13499 33615 ft 388 kts 270°
2026-04-21 06:42 46.36496 19.09595 33904 ft 389 kts 270°
2026-04-21 06:42 46.36306 19.05692 34140 ft 390 kts 270°
2026-04-21 06:42 46.36114 19.01775 34342 ft 391 kts 269°
2026-04-21 06:42 46.35917 18.97841 34544 ft 392 kts 269°
2026-04-21 06:43 46.35717 18.93896 34733 ft 393 kts 269°
2026-04-21 06:43 46.35516 18.89939 34918 ft 395 kts 269°
2026-04-21 06:43 46.35315 18.85970 35103 ft 396 kts 269°
2026-04-21 06:43 46.35111 18.81986 35281 ft 397 kts 269°
2026-04-21 06:44 46.34904 18.77996 35459 ft 398 kts 269°
2026-04-21 06:44 46.34693 18.73994 35636 ft 399 kts 269°
2026-04-21 06:44 46.34479 18.69986 35790 ft 401 kts 269°
2026-04-21 06:44 46.34268 18.66002 35946 ft 402 kts 269°
2026-04-21 06:45 46.34053 18.61917 36112 ft 403 kts 269°
2026-04-21 06:45 46.33840 18.57862 36275 ft 404 kts 269°
2026-04-21 06:45 46.33623 18.53805 36432 ft 405 kts 269°
2026-04-21 06:45 46.33403 18.49733 36580 ft 406 kts 268°
2026-04-21 06:46 46.33183 18.45709 36730 ft 407 kts 268°
2026-04-21 06:46 46.32955 18.41567 36884 ft 408 kts 268°
2026-04-21 06:46 46.32732 18.37524 37025 ft 409 kts 268°
2026-04-21 06:47 46.32272 18.29246 37046 ft 414 kts 268°
2026-04-21 06:47 46.31809 18.20972 37057 ft 411 kts 268°
2026-04-21 06:48 46.31339 18.12729 37055 ft 410 kts 268°
2026-04-21 06:48 46.30857 18.04502 37059 ft 410 kts 268°
2026-04-21 06:49 46.30372 17.96273 37059 ft 411 kts 268°
2026-04-21 06:49 46.29885 17.88093 37054 ft 411 kts 268°
2026-04-21 06:50 46.29387 17.79866 37054 ft 411 kts 268°
2026-04-21 06:50 46.28894 17.71635 37052 ft 411 kts 268°
2026-04-21 06:51 46.28392 17.63386 37056 ft 412 kts 268°
2026-04-21 06:51 46.27873 17.55137 37057 ft 412 kts 268°
2026-04-21 06:52 46.27354 17.46883 37059 ft 412 kts 268°
2026-04-21 06:52 46.26830 17.38625 37055 ft 412 kts 268°
2026-04-21 06:53 46.26292 17.30374 37044 ft 412 kts 268°
2026-04-21 06:53 46.25749 17.22133 37059 ft 412 kts 268°
2026-04-21 06:54 46.25204 17.13930 37075 ft 412 kts 268°
2026-04-21 06:54 46.24663 17.05693 37080 ft 412 kts 268°
2026-04-21 06:55 46.24111 16.97443 37075 ft 412 kts 268°
2026-04-21 06:55 46.23415 16.89216 37078 ft 414 kts 265°
2026-04-21 06:56 46.22543 16.80983 37084 ft 414 kts 265°
2026-04-21 06:56 46.21656 16.72759 37088 ft 415 kts 265°
2026-04-21 06:57 46.20804 16.64583 37088 ft 415 kts 265°
2026-04-21 06:57 46.19961 16.56349 37091 ft 415 kts 265°
2026-04-21 06:58 46.19104 16.48087 37098 ft 415 kts 265°
2026-04-21 06:58 46.18247 16.39846 37076 ft 416 kts 265°
2026-04-21 06:59 46.17382 16.31602 37087 ft 416 kts 265°
2026-04-21 06:59 46.16507 16.23362 37099 ft 416 kts 265°
2026-04-21 07:00 46.15624 16.15119 37102 ft 416 kts 265°
2026-04-21 07:00 46.14739 16.06931 37106 ft 416 kts 265°
2026-04-21 07:01 46.13844 15.98704 37107 ft 416 kts 265°
2026-04-21 07:01 46.12495 15.86357 37109 ft 416 kts 265°
2026-04-21 07:02 46.11743 15.79519 37106 ft 416 kts 265°
2026-04-21 07:02 46.10826 15.71290 37103 ft 416 kts 265°
2026-04-21 07:03 46.09752 15.61719 37070 ft 416 kts 265°
2026-04-21 07:03 46.08836 15.53503 37087 ft 415 kts 265°
2026-04-21 07:04 46.08060 15.46622 37097 ft 415 kts 265°
2026-04-21 07:04 46.07124 15.38453 37098 ft 416 kts 265°
2026-04-21 07:05 46.06179 15.30257 37097 ft 415 kts 265°
2026-04-21 07:05 46.05233 15.22064 37100 ft 415 kts 265°
2026-04-21 07:06 46.04283 15.13857 37095 ft 415 kts 265°
2026-04-21 07:06 46.03323 15.05658 37090 ft 416 kts 264°
2026-04-21 07:07 46.02354 14.97460 37092 ft 416 kts 264°
2026-04-21 07:07 46.01382 14.89262 37093 ft 416 kts 264°
2026-04-21 07:08 46.00407 14.81070 37077 ft 416 kts 264°
2026-04-21 07:08 45.99429 14.72937 37087 ft 415 kts 264°
2026-04-21 07:09 45.98445 14.64775 37093 ft 413 kts 264°
2026-04-21 07:09 45.97454 14.56642 37091 ft 413 kts 264°
2026-04-21 07:10 45.96462 14.48523 37085 ft 412 kts 264°
2026-04-21 07:10 45.95470 14.40417 37082 ft 412 kts 264°
2026-04-21 07:11 45.94467 14.32310 37065 ft 412 kts 264°
2026-04-21 07:11 45.93456 14.24218 37065 ft 411 kts 264°
2026-04-21 07:12 45.92440 14.16125 37056 ft 411 kts 264°
2026-04-21 07:12 45.91437 14.08109 37057 ft 411 kts 264°
2026-04-21 07:13 45.90417 14.00033 37055 ft 411 kts 264°
2026-04-21 07:13 45.89388 13.91964 37053 ft 411 kts 264°
2026-04-21 07:14 45.88348 13.83899 37044 ft 411 kts 264°
2026-04-21 07:14 45.87304 13.75843 37044 ft 411 kts 264°
2026-04-21 07:15 45.86260 13.67777 37044 ft 411 kts 264°
2026-04-21 07:15 45.85209 13.59720 37043 ft 410 kts 264°
2026-04-21 07:16 45.84418 13.51649 37042 ft 408 kts 268°
2026-04-21 07:16 45.83951 13.43611 37033 ft 407 kts 269°
2026-04-21 07:17 45.83480 13.35518 37037 ft 408 kts 268°
2026-04-21 07:17 45.82916 13.27427 37036 ft 408 kts 268°
2026-04-21 07:18 45.82307 13.19332 37037 ft 408 kts 268°
2026-04-21 07:18 45.81699 13.11239 37037 ft 408 kts 268°
2026-04-21 07:19 45.81102 13.03159 37013 ft 408 kts 268°
2026-04-21 07:19 45.80508 12.95075 36988 ft 407 kts 268°
2026-04-21 07:20 45.79908 12.87007 36994 ft 407 kts 268°
2026-04-21 07:20 45.79293 12.78936 36998 ft 407 kts 268°
2026-04-21 07:21 45.78678 12.70875 36999 ft 407 kts 267°
2026-04-21 07:21 45.78057 12.62805 37017 ft 407 kts 267°
2026-04-21 07:22 45.77428 12.54797 37021 ft 407 kts 267°
2026-04-21 07:22 45.76785 12.46743 37024 ft 407 kts 267°
2026-04-21 07:23 45.76144 12.38686 37015 ft 407 kts 267°
2026-04-21 07:23 45.75503 12.30632 37021 ft 407 kts 267°
2026-04-21 07:24 45.74863 12.22578 37013 ft 407 kts 267°
2026-04-21 07:24 45.74198 12.14520 37014 ft 407 kts 267°
2026-04-21 07:25 45.73525 12.06472 37014 ft 407 kts 267°
2026-04-21 07:25 45.72859 11.98428 37003 ft 407 kts 267°
2026-04-21 07:26 45.72194 11.90386 37014 ft 407 kts 267°
2026-04-21 07:26 45.71514 11.82347 37013 ft 407 kts 266°
2026-04-21 07:27 45.70823 11.74301 37010 ft 407 kts 266°
2026-04-21 07:27 45.70478 11.70267 36761 ft 408 kts 266°
2026-04-21 07:27 45.70131 11.66244 36503 ft 407 kts 266°
2026-04-21 07:28 45.69786 11.62293 36249 ft 406 kts 266°
2026-04-21 07:28 45.69434 11.58291 35994 ft 405 kts 266°
2026-04-21 07:28 45.69086 11.54286 35742 ft 405 kts 266°
2026-04-21 07:28 45.68739 11.50293 35493 ft 404 kts 266°
2026-04-21 07:29 45.68392 11.46307 35248 ft 404 kts 266°
2026-04-21 07:29 45.68042 11.42325 35046 ft 403 kts 266°
2026-04-21 07:29 45.67333 11.34378 35014 ft 403 kts 266°
2026-04-21 07:30 45.66612 11.26423 35011 ft 404 kts 266°
2026-04-21 07:30 45.66224 11.18460 35011 ft 401 kts 272°
2026-04-21 07:31 45.66164 11.10493 35004 ft 400 kts 273°
2026-04-21 07:31 45.66128 11.02536 35009 ft 400 kts 272°
2026-04-21 07:32 45.66065 10.94634 35002 ft 400 kts 272°
2026-04-21 07:32 45.65988 10.86683 35001 ft 399 kts 272°
2026-04-21 07:33 45.65906 10.78739 34998 ft 400 kts 272°
2026-04-21 07:33 45.65814 10.70804 34992 ft 399 kts 272°
2026-04-21 07:34 45.65726 10.62870 34578 ft 400 kts 272°
2026-04-21 07:34 45.65678 10.58904 33799 ft 393 kts 272°
2026-04-21 07:34 45.65627 10.55040 32837 ft 385 kts 272°
2026-04-21 07:35 45.65576 10.51301 31917 ft 378 kts 272°
2026-04-21 07:35 45.65525 10.47621 31567 ft 364 kts 272°
2026-04-21 07:35 45.65475 10.44051 31310 ft 355 kts 272°